W5URF-13 Weather Reports


time (UTC)temp
C
wind
direction
speed
KPH
gust
KPH
rain 1hr
cm
rain 24hr
cm
rain mn
cm
humidity
%
barometer
mb
20260506020059 10 1 1.6 22.5 0.00 0.00 0.00 76 1012.7
20260506014556 10 27 3.2 12.9 0.00 0.00 0.00 77 1012.4
20260506013054 10 66 3.2 12.9 0.00 0.00 0.00 76 1012.0
20260506011555 10 102 0.0 14.5 0.00 0.00 0.00 75 1011.8
20260506010056 10 70 4.8 11.3 0.00 0.00 0.00 76 1011.7
20260506004548 10 68 4.8 11.3 0.00 0.00 0.00 75 1011.6
20260506003047 10 68 3.2 11.3 0.00 0.00 0.00 75 1011.5
20260506001544 10 160 6.4 19.3 0.00 0.00 0.00 73 1011.3
20260506000043 10 67 3.2 14.5 0.00 0.00 0.00 73 1011.1
20260505234604 10 78 1.6 14.5 0.00 0.00 0.00 72 1011.3
20260505233040 11 105 0.0 14.5 0.00 0.00 0.00 73 1011.1
20260505231537 11 108 1.6 19.3 0.00 0.00 0.00 72 1010.9
20260505230037 11 38 3.2 22.5 0.00 0.00 0.00 72 1010.5
20260505224533 11 22 6.4 19.3 0.00 0.00 0.00 72 1010.2
20260505223030 11 77 0.0 14.5 0.00 0.00 0.00 71 1010.1
20260505221527 11 70 0.0 14.5 0.00 0.00 0.00 71 1009.6
20260505220026 11 347 6.4 17.7 0.00 0.00 0.00 72 1009.4
20260505214524 11 69 0.0 19.3 0.00 0.00 0.00 73 1009.8
20260505213022 11 50 1.6 16.1 0.00 0.00 0.00 74 1009.8
20260505211534 12 14 3.2 19.3 0.00 0.00 0.00 74 1009.6
20260505210018 11 4 8.0 29.0 0.00 0.00 0.00 75 1009.0
20260505204516 11 46 8.0 22.5 0.00 0.00 0.00 76 1009.2
20260505203014 11 22 8.0 27.4 0.00 0.00 0.00 76 1009.5
20260505201510 12 29 4.8 19.3 0.00 0.00 0.00 77 1009.0
20260505200008 12 95 4.8 14.5 0.00 0.00 0.00 78 1008.9
20260505194508 12 17 6.4 29.0 0.00 0.00 0.00 77 1009.0
20260505193003 12 360 4.8 19.3 0.00 0.00 0.00 78 1008.9
20260505191602 12 82 4.8 17.7 0.00 0.00 0.00 78 1008.5
20260505190058 12 22 4.8 19.3 0.00 0.00 0.00 80 1008.4
20260505184558 12 39 4.8 17.7 0.00 0.00 0.00 81 1008.0
20260505183055 12 12 0.0 24.1 0.00 0.00 0.00 81 1008.1
20260505181552 12 30 4.8 22.5 0.00 0.00 0.00 82 1008.2
20260505180056 12 48 4.8 25.7 0.00 0.00 0.00 82 1008.1
20260505174547 12 63 6.4 24.1 0.00 0.00 0.00 83 1007.2
20260505173044 13 58 6.4 24.1 0.00 0.00 0.00 83 1007.1
20260505171543 13 56 3.2 14.5 0.00 0.00 0.00 83 1007.2
20260505170041 13 22 4.8 20.9 0.00 0.00 0.00 83 1006.9
20260505164539 13 66 8.0 24.1 0.00 0.00 0.00 83 1006.6
20260505163035 13 30 4.8 25.7 0.00 0.00 0.00 83 1006.4
20260505161532 14 1 9.7 30.6 0.00 0.00 0.00 82 1006.3
20260505153019 16 46 4.8 25.7 0.00 0.00 0.00 81 1005.5
20260505151519 18 44 6.4 12.9 0.00 0.00 0.00 80 1005.2
20260505124603 18 83 3.2 9.7 0.00 0.00 0.00 80 1004.6
20260505123100 18 167 1.6 8.0 0.00 0.00 0.00 80 1004.4
20260505121601 18 126 1.6 8.0 0.00 0.00 0.00 80 1004.1
20260505120112 18 111 1.6 8.0 0.00 0.00 0.00 80 1004.2
20260505114559 18 114 1.6 6.4 0.00 0.00 0.00 80 1004.1
20260505113104 18 84 1.6 4.8 0.00 0.00 0.00 80 1004.0
20260505111556 18 244 0.0 6.4 0.00 0.00 0.00 80 1003.8
20260505101557 18 82 3.2 6.4 0.00 0.00 0.00 80 1003.0
20260505100055 18 96 1.6 6.4 0.00 0.00 0.00 79 1002.8
20260505094559 18 117 1.6 6.4 0.00 0.00 0.00 79 1002.7
20260505093054 19 130 1.6 6.4 0.00 0.00 0.00 78 1002.8
20260505091547 19 164 1.6 6.4 0.00 0.00 0.00 76 1002.8
20260505090044 20 151 1.6 6.4 0.00 0.00 0.00 75 1002.9
20260505084543 20 155 1.6 6.4 0.00 0.00 0.00 75 1003.1
20260505083057 20 140 1.6 4.8 0.00 0.00 0.00 74 1003.1
20260505081540 20 165 1.6 4.8 0.00 0.00 0.00 74 1003.3
20260505080042 20 130 0.0 4.8 0.00 0.00 0.00 74 1003.3
20260505074537 20 117 0.0 0.0 0.00 0.00 0.00 73 1003.6
20260505073039 20 131 0.0 0.0 0.00 0.00 0.00 73 1003.8
20260505071535 20 64 0.0 0.0 0.00 0.00 0.00 73 1003.9
20260505070043 20 39 0.0 4.8 0.00 0.00 0.00 73 1004.2
20260505064533 20 31 0.0 0.0 0.00 0.00 0.00 73 1004.2
20260505063032 20 29 0.0 0.0 0.00 0.00 0.00 73 1004.4
20260505061542 20 359 0.0 0.0 0.00 0.00 0.00 71 1004.2
20260505060027 21 211 3.2 11.3 0.00 0.00 0.00 71 1003.5
20260505054540 21 179 1.6 16.1 0.00 0.00 0.00 70 1003.5
20260505053026 21 233 3.2 12.9 0.00 0.00 0.00 70 1003.6
20260505051523 21 218 3.2 11.3 0.00 0.00 0.00 69 1003.6
20260505041510 21 252 3.2 9.7 0.00 0.00 0.00 67 1003.5
20260505040018 21 146 3.2 9.7 0.00 0.00 0.00 66 1003.9
20260505034504 21 165 4.8 16.1 0.00 0.00 0.00 64 1003.9
20260505033003 21 226 6.4 17.7 0.00 0.00 0.00 63 1004.2
20260505031600 21 151 3.2 12.9 0.00 0.00 0.00 63 1004.4
20260505030059 21 162 4.8 12.9 0.00 0.00 0.00 62 1004.5
20260505024557 21 120 6.4 16.1 0.00 0.00 0.00 61 1004.7
20260505023057 22 151 4.8 11.3 0.00 0.00 0.00 60 1004.8
20260505021558 22 147 4.8 16.1 0.00 0.00 0.00 60 1004.6